Location: ????????
(55.1591°N, 39.1782°E)
Time: 22:55:17
(UTC+00:00)

Cosmos 1624 Rocket - Pass Details

Date: 14 April 2024
Orbit: 755 x 781 km, 74.0° (Epoch: 23 May)

Event Time Altitude Azimuth Distance (km) Brightness Sun altitude
Rises 00:44:01 0° 332° (NNW) 3,255 7.4 -13.0°
Reaches altitude 10° 00:46:25 10° 332° (NNW) 2,320 6.6 -12.8°
Maximum altitude 00:51:41 89° 249° (WSW) 772 4.0 -12.2°
Drops below altitude 10° 00:56:54 10° 155° (SSE) 2,289 6.4 -11.6°
Sets 00:59:15 0° 155° (SSE) 3,207 7.1 -11.3°
